This is the latest recevied weather packets stored in our database for station/object N8RJC-13. If no packets are shown the sender has not sent any weather packets the latest 1 day(s).
| Time | Temp. | Humidity | Pressure | Rain* | Wind** | Luminosity | Snow |
|---|---|---|---|---|---|---|---|
| 1778052201 | 7.78° C | 94% | 984.7 hPa | 2.79 mm | 2.24 m/s, 347° | - | - |
| 1778052141 | 7.78° C | 94% | 984.7 hPa | 2.79 mm | 2.24 m/s, 347° | - | - |
| 1778052081 | 7.78° C | 94% | 984.7 hPa | 2.79 mm | 2.24 m/s, 347° | - | - |
| 1778052021 | 7.78° C | 94% | 984.7 hPa | 2.79 mm | 2.24 m/s, 347° | - | - |
| 1778051901 | 7.78° C | 94% | 984.6 hPa | 2.79 mm | 2.24 m/s, 347° | - | - |
| 1778051841 | 7.78° C | 94% | 984.6 hPa | 2.79 mm | 2.24 m/s, 347° | - | - |
| 1778051781 | 7.78° C | 94% | 984.6 hPa | 2.79 mm | 2.24 m/s, 347° | - | - |
| 1778051661 | 7.78° C | 94% | 984.7 hPa | 1.78 mm | 1.34 m/s, 20° | - | - |
| 1778051420 | 7.78° C | 94% | 984.7 hPa | 1.78 mm | 1.34 m/s, 20° | - | - |
| 1778051361 | 7.78° C | 94% | 984.6 hPa | 0 mm | 2.24 m/s, 1° | - | - |
| 1778051180 | 7.78° C | 94% | 984.6 hPa | 0 mm | 2.24 m/s, 1° | - | - |
| 1778051061 | 7.78° C | 94% | 984.8 hPa | 0 mm | 2.68 m/s, 2° | - | - |
| 1778050941 | 7.78° C | 94% | 984.8 hPa | 0 mm | 2.68 m/s, 2° | - | - |
| 1778050881 | 7.78° C | 94% | 984.8 hPa | 0 mm | 2.68 m/s, 2° | - | - |
| 1778050761 | 7.78° C | 94% | 984.7 hPa | 0 mm | 1.79 m/s, 300° | - | - |
| 1778050701 | 7.78° C | 94% | 984.7 hPa | 0 mm | 1.79 m/s, 300° | - | - |
| 1778050641 | 7.78° C | 94% | 984.7 hPa | 0 mm | 1.79 m/s, 300° | - | - |
| 1778050581 | 7.78° C | 94% | 984.7 hPa | 0 mm | 1.79 m/s, 300° | - | - |
| 1778050521 | 7.78° C | 94% | 984.7 hPa | 0 mm | 1.79 m/s, 300° | - | - |
| 1778050221 | 7.78° C | 94% | 984.5 hPa | 1.02 mm | 1.34 m/s, 7° | - | - |
| 1778050161 | 7.78° C | 94% | 984.4 hPa | 1.02 mm | 0.89 m/s, 324° | - | - |
| 1778050101 | 7.78° C | 94% | 984.4 hPa | 1.02 mm | 0.89 m/s, 324° | - | - |
| 1778050041 | 7.78° C | 94% | 984.4 hPa | 1.02 mm | 0.89 m/s, 324° | - | - |
| 1778049981 | 7.78° C | 94% | 984.4 hPa | 1.02 mm | 0.89 m/s, 324° | - | - |
| 1778049921 | 7.78° C | 94% | 984.4 hPa | 1.02 mm | 0.89 m/s, 324° | - | - |
* Rain latest hour (hover to see other rain measurements)
** Current wind speed in m/s (hover to see current wind gust speed)